Terug naar catalogus

ARIANE 1 DEB

ActiefSSO
NORAD 17203·DEBRIS·🇫🇷 France

Gelanceerd Feb 22, 1986 vanaf Guiana Space Centre

Loading…

Volgende Passages (komende 24 uur)

TLE

VersSource: Space-Track

Epoch: Sep 14, 2026, 21:41 UTC

1 17203U 86019BF  26257.90354463  .00000086  00000-0  70446-4 0  9992
2 17203  98.6095 277.0681 0127948 252.3591 227.7317 14.07869471 38569

Volg ARIANE 1 DEB in realtime met AllMySat

Download on the App Store